EDDR

Saarbrücken Airport

Airport
ICAO code
EDDR
IATA Code
SCN
Summary
ICAO Region
EUR
ICAO Territory
Location

Saarbrücken, Saarland

Serving
Saarbrücken
Coordinates
49° 12' 59" N , 7° 6' 42" E
KCC
Metar
EDDR 190550Z AUTO 23011KT 9999 -RA FEW023 BKN033 05/02 Q1016 NOSIG

Saarbrücken Airport, or Ensheim Airport, is a minor international airport in Saarbrücken, the capital of the German state of Saarland.

Climatology

Temperate Marine climate/Oceanic climate (Köppen climate classification Cfb) - Moderately cool summer and comparatively warm winter.

Runways

Designator Length Width Surface Rops
09L/27R 545 50 GRS No/No
9/27 2000 45 ASP Yes/Yes

Airport map

Aerial View

SKYbrary Partners:

Safety knowledge contributed by: